Theta_e
345 344 342 341 341 339 337 338 337 337 336 336 335 332 333 335 336 336 333 332 334 336 337 337 336 335 334 331 330 331 334 332 324 320 322 323 327 330 331 333 333 333 333 332 332 331 331 329 327 324 323 321 321 325 328 329 330 330 330 329 330 329
344 344 343 343 342 340 338 339 338 338 336 337 336 334 335 338 338 338 336 333 334 336 337 337 337 336 334 332 330 332 334 333 326 320 322 325 329 332 332 333 333 333 333 332 332 331 331 329 326 324 322 322 324 327 327 328 330 330 329 330 329 329
344 344 343 343 343 341 340 339 339 338 337 338 337 335 336 339 339 339 338 336 335 337 337 338 337 336 335 331 330 332 334 334 328 322 324 328 330 332 333 333 333 333 333 332 332 332 332 329 326 324 323 322 325 326 326 327 329 330 330 330 329 328
344 344 343 343 343 342 341 340 340 339 338 338 338 336 337 339 339 340 339 337 336 336 336 337 337 336 335 332 331 332 334 334 329 325 326 329 331 332 333 333 333 332 332 332 332 332 332 330 327 324 323 323 324 325 326 328 329 330 330 329 329 328
344 344 344 343 343 343 342 341 341 341 340 339 339 338 338 339 340 340 339 338 336 335 335 336 336 336 336 334 333 334 335 334 332 330 329 331 333 333 334 334 333 333 332 332 332 332 332 330 328 325 324 324 324 324 326 328 329 330 329 329 328 328
344 344 344 344 343 342 341 341 340 341 340 340 339 338 339 339 339 339 338 338 336 335 334 335 336 336 337 336 335 335 335 335 334 331 330 333 333 332 334 335 334 334 333 333 332 332 332 331 329 326 325 324 324 324 326 328 329 330 329 329 328 327
343 343 343 343 342 342 341 340 340 340 339 339 339 337 338 340 340 340 339 338 336 335 335 335 336 336 336 336 336 335 335 335 334 333 331 332 331 332 334 334 334 334 333 333 332 332 332 331 329 327 327 325 324 323 324 327 329 330 330 329 328 327
342 342 342 342 342 342 341 340 340 340 339 339 338 336 337 339 339 340 339 338 337 336 335 335 336 335 335 336 336 336 335 333 333 333 332 330 330 332 333 334 334 333 333 333 332 332 332 331 329 328 328 326 324 323 323 326 329 330 329 329 329 326
341 341 342 342 342 342 341 340 339 339 339 338 337 337 338 339 339 340 340 339 338 336 335 335 335 335 334 334 336 336 335 332 331 332 332 330 329 331 332 333 334 333 333 333 332 332 331 331 329 328 329 327 325 324 324 326 328 330 329 329 329 326
340 341 342 342 341 341 341 340 339 339 339 338 337 338 338 338 338 339 340 339 338 337 335 335 335 336 335 334 335 336 335 333 331 330 331 330 330 330 332 333 334 334 333 333 332 332 332 331 330 329 330 328 326 325 324 325 327 329 330 329 329 327
339 341 341 341 341 340 341 340 339 339 339 338 338 338 337 337 339 339 339 339 338 336 335 335 335 336 336 335 335 336 335 334 332 331 330 329 330 330 331 333 335 335 335 334 333 332 332 331 330 330 330 330 328 327 325 324 325 327 329 329 329 328
339 341 340 340 340 340 340 339 339 338 339 338 337 338 336 337 339 339 339 338 337 336 334 335 335 335 336 336 335 336 336 334 333 332 331 329 329 329 330 333 335 335 334 334 334 333 333 332 331 330 330 330 329 328 326 325 325 327 328 328 328 328
339 340 340 339 339 340 340 339 339 338 339 339 337 338 337 338 339 339 339 337 337 335 334 335 335 334 335 336 335 336 336 334 333 333 332 331 329 329 330 332 334 334 332 331 333 334 334 333 332 330 330 330 329 328 327 326 327 328 328 327 327 328
338 339 339 339 339 339 340 339 339 339 339 339 338 338 338 338 339 339 338 337 337 336 334 335 334 333 334 335 335 335 336 334 334 334 332 332 331 330 330 331 332 332 330 330 332 334 334 334 332 331 330 330 330 330 329 328 328 328 328 327 327 328
338 339 339 339 339 339 339 338 339 339 338 338 338 338 337 338 338 339 338 337 337 337 336 335 334 333 334 335 335 335 334 334 334 334 333 332 332 331 330 331 331 331 330 331 333 334 334 334 333 332 331 331 331 331 331 330 329 328 328 328 328 329
338 339 339 339 338 338 338 338 339 339 338 338 337 337 337 337 338 338 338 337 338 338 337 336 335 334 334 335 335 334 334 334 334 334 334 333 332 332 332 331 330 330 330 332 333 333 333 333 334 333 332 331 331 331 331 331 329 328 327 328 329 329
338 339 339 339 338 337 338 339 339 339 338 337 337 337 336 337 338 338 338 338 338 338 337 336 336 336 335 335 334 333 333 333 333 333 333 333 332 332 331 331 331 331 331 331 333 332 332 333 333 332 332 331 331 331 331 331 329 327 327 328 329 329
338 338 339 338 338 337 337 338 338 338 338 337 337 337 335 335 337 338 338 338 338 338 337 335 335 336 336 336 335 333 333 333 332 332 332 332 332 331 331 331 332 332 332 332 333 333 332 333 333 332 332 331 331 331 331 331 328 326 327 329 328 328
337 337 337 338 337 336 337 337 337 337 338 337 336 336 336 335 335 337 337 338 339 338 337 335 334 335 335 335 334 333 333 333 333 332 332 332 333 333 333 333 333 333 332 332 333 333 332 332 332 331 331 331 331 331 330 330 328 326 328 329 328 328
337 337 337 337 336 336 336 336 335 336 337 336 335 335 336 335 335 336 337 337 338 338 336 334 334 334 334 334 334 334 333 333 333 334 333 333 334 334 334 334 334 333 332 332 332 332 332 332 331 331 331 330 330 330 330 330 329 327 328 328 328 328
334 335 335 335 335 335 335 335 334 334 335 335 334 333 334 334 335 336 337 337 338 337 336 334 334 335 334 334 333 334 333 333 334 334 334 334 334 334 334 334 334 333 333 332 331 331 331 331 331 331 330 330 330 330 330 330 329 328 327 327 328 328
332 333 334 333 333 333 333 334 333 333 333 333 333 333 332 333 334 335 336 336 336 337 335 335 335 335 335 334 333 334 334 334 334 335 334 334 334 334 334 334 334 333 333 332 332 331 331 331 331 331 331 331 331 330 330 330 330 329 328 327 328 328
333 333 333 333 333 332 331 332 332 332 332 332 332 332 332 333 333 334 335 336 336 336 335 335 336 336 336 335 334 334 334 334 334 334 334 334 334 334 334 334 334 333 333 332 332 331 330 331 331 331 331 331 331 331 330 330 329 329 329 329 328 328
333 332 333 333 333 332 331 331 331 331 332 332 332 332 332 332 332 333 334 335 335 335 335 336 336 336 336 336 335 334 334 333 333 333 334 334 334 334 333 333 334 334 333 332 331 330 330 331 331 331 331 330 330 331 330 330 329 328 328 329 328 328
333 331 332 333 333 333 332 332 331 331 332 332 332 332 333 333 332 333 334 334 335 334 335 336 336 336 336 336 336 335 334 333 333 334 334 334 334 334 333 333 334 334 333 333 332 330 330 330 331 332 331 330 330 330 329 328 329 329 328 328 328 328
331 331 331 332 333 332 332 333 332 332 332 332 333 332 333 334 333 333 334 334 334 333 333 334 336 336 336 336 336 335 335 334 334 334 334 334 334 334 334 333 333 333 334 334 333 331 330 330 331 331 330 330 329 328 329 328 328 329 328 327 327 327
330 331 331 331 332 332 332 333 332 333 333 332 333 333 334 334 334 334 334 334 335 334 332 332 333 335 336 336 335 335 335 335 334 333 333 334 334 334 334 333 332 333 334 333 333 332 331 330 330 330 329 328 326 326 328 329 328 328 328 327 328 327
331 331 331 332 332 332 332 332 332 333 333 333 333 333 334 334 334 334 334 335 335 333 333 332 332 334 335 335 334 334 334 334 334 333 333 334 335 334 333 333 332 333 333 333 333 333 332 331 330 330 329 328 327 326 329 331 329 328 328 327 327 327
331 331 331 332 332 332 332 332 332 332 333 334 334 334 334 334 334 334 334 334 334 333 333 333 332 333 334 334 333 334 334 334 333 334 334 334 335 334 332 332 331 331 332 333 333 333 332 331 330 331 330 329 329 329 330 330 329 329 328 327 327 327
331 331 331 331 332 332 332 332 332 332 332 333 333 334 333 332 333 333 333 332 333 333 333 332 332 332 332 332 333 334 333 333 332 332 334 334 335 334 332 331 330 330 331 332 333 333 333 332 331 331 330 329 329 329 329 330 329 329 329 328 327 327
330 330 330 331 331 332 332 332 332 333 333 333 333 334 331 331 333 332 331 332 332 332 332 332 332 331 331 331 332 333 334 333 331 331 332 334 335 335 334 331 330 331 331 332 332 332 332 332 332 331 330 329 329 329 330 330 330 329 329 329 327 327
329 329 330 330 330 331 332 332 333 333 333 333 334 334 331 332 333 332 332 333 333 332 332 332 331 332 332 332 331 331 332 332 331 331 332 333 334 335 335 332 331 331 330 331 332 332 331 331 331 331 330 330 330 330 330 331 331 330 329 329 328 327
327 327 328 328 329 330 331 331 332 332 333 333 333 333 332 331 332 332 334 334 333 332 332 331 331 331 332 332 331 330 330 331 331 332 332 333 333 334 334 332 331 330 330 332 331 331 331 330 330 331 330 330 330 331 331 331 330 330 329 329 329 328
324 325 326 326 327 329 330 330 331 331 332 333 333 333 332 331 331 333 333 333 333 332 332 331 331 331 331 332 332 331 330 331 331 331 332 333 333 333 332 332 331 330 331 331 329 330 331 330 331 331 330 331 330 330 331 330 329 329 329 329 329 328
320 322 323 324 325 327 327 328 329 330 331 332 333 332 332 332 331 332 332 332 333 333 332 332 331 331 331 330 330 331 331 331 331 331 331 332 333 332 332 332 332 331 330 330 330 330 330 330 331 331 331 331 331 331 330 329 329 330 330 329 329 329
317 319 321 322 323 324 325 327 327 328 329 330 331 332 332 332 331 332 333 333 334 333 333 332 332 330 330 330 330 330 330 331 332 331 331 331 331 332 333 332 331 331 331 331 331 330 330 329 330 331 331 331 331 331 330 329 329 330 329 329 329 329
314 316 320 321 322 323 324 325 326 327 328 328 329 330 331 332 332 332 333 333 333 333 332 332 332 330 330 330 330 330 330 331 332 332 331 330 329 330 333 333 332 332 332 331 331 330 329 329 330 330 332 332 332 331 331 330 330 330 329 328 328 328
Wind_Speed
19 20 20 19 19 18 17 17 16 16 15 15 13 14 17 17 16 15 15 17 17 15 14 14 12 12 11 10 11 10 10 10 12 16 17 17 16 15 15 15 15 15 16 17 17 15 14 12 12 12 12 13 14 14 14 13 12 12 11 11 10 10
19 19 19 18 19 19 18 18 17 16 16 15 13 15 17 17 16 15 14 16 16 14 13 13 12 12 12 12 12 10 9 8 10 16 18 18 17 15 16 16 16 15 16 17 17 16 14 12 11 11 12 13 14 13 13 13 12 11 10 10 9 10
20 20 19 17 18 18 19 18 17 17 16 15 14 16 17 17 16 15 15 15 15 14 14 13 12 13 13 13 12 10 10 9 10 15 19 18 17 16 16 17 17 16 16 16 16 15 14 13 12 12 12 12 13 12 13 13 12 11 10 9 9 9
19 20 20 19 19 18 18 17 17 17 17 17 16 17 18 17 16 15 15 16 15 14 13 12 12 13 13 13 13 10 10 9 10 14 18 18 17 16 16 16 17 15 15 15 15 14 14 14 13 12 12 12 12 12 12 12 11 10 9 9 9 9
19 20 20 20 20 18 18 17 17 17 17 17 16 17 18 17 16 16 16 16 15 14 13 12 12 13 13 13 12 10 9 9 10 12 16 15 15 16 16 16 17 16 15 14 13 14 14 14 13 13 12 12 12 12 11 11 11 10 9 8 8 9
18 18 18 19 19 18 18 17 17 17 16 16 15 15 17 17 16 16 17 17 16 15 13 12 12 12 12 12 12 10 9 9 10 12 14 13 13 17 16 16 17 16 15 14 13 13 13 13 13 12 12 12 11 11 11 10 10 10 9 8 8 9
17 17 18 18 18 19 19 18 18 18 17 16 15 15 17 17 17 17 18 18 17 15 14 12 11 12 12 12 11 11 9 9 9 10 12 12 15 18 16 15 16 16 16 14 13 13 12 12 12 12 12 11 11 11 11 10 9 9 8 7 7 8
17 17 18 19 19 20 19 19 20 19 18 17 17 17 17 18 18 18 18 19 18 16 14 12 12 12 12 11 11 10 9 10 10 9 9 14 17 17 16 14 15 16 16 15 14 13 12 11 11 11 11 11 10 10 10 9 9 9 7 7 7 7
19 18 19 20 20 20 20 20 21 20 19 19 18 17 17 19 19 18 18 19 18 17 16 14 13 12 11 11 11 10 10 12 12 10 9 14 17 17 16 14 14 15 15 15 15 14 13 11 10 10 10 10 10 9 8 8 8 8 7 7 7 6
22 20 20 21 22 22 22 22 21 20 19 19 17 16 18 20 20 18 18 18 18 18 17 15 15 13 11 11 11 11 12 13 14 12 11 13 16 17 16 15 14 14 14 14 14 14 13 12 11 9 9 9 9 8 7 7 7 7 7 6 7 6
25 21 20 22 22 24 23 22 22 20 19 18 16 15 18 20 19 19 18 17 16 17 17 15 15 13 11 11 11 12 11 13 14 13 13 13 14 16 17 15 12 12 12 13 13 13 12 12 11 10 9 8 8 8 7 6 6 6 6 6 7 6
23 22 23 24 23 24 23 22 22 21 19 19 18 16 19 20 17 17 18 17 16 17 17 15 14 13 11 10 11 12 11 13 14 13 13 13 13 15 16 15 13 11 10 11 12 13 12 11 11 11 10 9 8 7 7 6 6 5 5 6 6 6
23 24 24 24 23 21 21 20 20 20 18 19 18 15 18 19 16 17 18 17 17 17 17 14 14 13 11 10 11 12 12 13 14 13 14 14 13 13 15 15 14 12 10 10 12 12 12 11 10 10 10 9 8 8 7 6 6 5 5 5 5 5
23 26 23 21 20 19 20 19 18 18 17 17 16 13 14 17 16 17 18 18 17 17 17 14 14 14 12 10 10 12 13 13 14 14 15 15 14 13 13 14 15 13 11 10 10 11 12 11 10 10 10 9 7 7 6 6 5 5 5 4 4 4
21 22 20 18 18 18 18 18 17 17 17 16 14 12 13 15 16 17 19 20 19 17 17 15 14 14 12 11 10 12 14 13 13 14 15 16 15 14 13 13 14 14 12 10 8 8 9 9 9 8 8 7 6 6 5 5 5 5 5 4 4 3
19 19 18 18 18 17 16 16 17 17 16 15 15 14 13 14 15 17 19 21 20 18 17 17 15 14 13 12 11 12 14 13 13 14 14 16 15 14 13 13 13 13 12 10 7 7 8 7 7 7 6 6 6 6 5 5 5 6 5 5 5 4
19 18 17 15 15 16 15 16 18 18 15 15 15 14 14 15 15 17 18 19 20 20 18 17 17 15 14 13 13 13 14 13 13 14 14 15 16 15 13 13 12 12 12 11 8 8 8 8 7 6 6 6 6 6 6 5 6 6 5 5 5 4
18 17 15 13 13 15 15 15 18 19 16 15 16 14 13 17 17 16 18 20 21 20 19 18 18 17 16 15 15 15 16 15 14 14 14 15 15 15 14 14 12 11 12 12 9 9 9 8 7 6 6 6 6 6 6 6 6 6 6 5 5 4
16 14 12 11 11 12 13 13 14 16 17 15 15 15 14 18 19 19 20 21 21 21 21 20 20 19 18 17 16 17 18 17 16 15 15 15 14 14 14 14 13 12 12 10 8 9 9 8 7 6 6 5 6 6 6 6 6 6 6 7 6 5
10 9 7 7 10 11 11 11 11 13 16 16 16 17 17 19 22 23 23 22 22 23 23 22 22 21 19 18 18 19 20 19 17 16 17 17 14 14 14 14 13 13 12 10 8 8 9 9 8 6 5 5 6 6 5 6 7 7 7 7 7 6
8 4 1 3 6 8 8 9 11 12 15 17 17 18 19 21 23 24 25 24 24 24 24 24 23 22 20 20 19 20 22 20 18 17 17 18 17 15 14 14 13 12 13 12 10 10 10 10 9 7 6 5 5 5 5 6 7 7 8 8 7 7
12 8 4 5 4 7 9 9 11 14 17 18 19 19 19 20 22 25 25 24 25 25 25 25 24 23 21 20 20 21 22 23 20 18 17 18 18 17 16 15 14 13 12 12 11 11 12 11 9 9 8 6 4 4 5 6 7 7 8 8 7 7
10 10 11 13 12 13 14 13 12 15 18 19 18 19 18 18 21 25 26 24 24 24 25 26 25 24 22 20 20 20 23 25 23 20 18 17 18 18 17 16 16 15 12 11 10 11 13 11 10 10 9 5 4 4 4 5 6 7 8 8 8 8
19 16 12 12 12 12 13 12 13 14 17 19 18 17 18 18 20 24 26 25 23 21 22 23 22 22 20 19 18 20 23 26 24 22 19 18 17 17 18 18 16 16 14 13 11 10 12 11 11 11 8 4 4 4 3 5 7 7 7 7 7 8
18 12 7 6 6 7 9 10 12 12 14 17 17 16 17 18 19 22 23 24 25 22 20 19 18 18 17 15 17 20 23 25 23 22 21 21 20 16 18 19 17 18 16 14 13 11 12 13 13 12 8 4 3 3 4 5 7 6 7 8 7 8
15 11 7 6 4 5 7 9 11 11 12 15 16 17 18 17 18 20 22 24 27 24 19 16 14 15 14 13 15 18 21 24 24 22 21 23 24 20 22 22 18 17 16 14 13 13 13 15 14 13 11 8 4 2 3 7 7 4 6 8 7 8
12 10 7 5 4 4 6 8 10 11 11 13 14 17 17 16 15 18 21 24 26 24 19 16 15 13 12 11 12 14 19 23 24 24 21 21 23 24 26 23 18 17 17 16 15 14 15 16 15 14 14 11 6 3 6 8 6 4 6 6 6 7
8 7 4 3 2 2 4 5 8 10 11 12 13 14 14 14 14 16 21 23 22 21 19 18 18 15 13 14 16 17 19 21 22 22 21 21 22 23 23 20 19 21 18 16 16 14 15 17 16 15 15 12 7 5 8 7 5 6 5 5 7 7
10 8 7 5 3 3 4 4 6 9 11 12 11 12 12 13 14 16 18 17 15 16 17 18 19 18 17 19 22 23 22 23 23 21 20 21 22 22 22 19 22 24 19 16 16 15 15 17 17 16 16 14 8 7 9 6 5 7 5 4 6 7
11 11 10 8 5 4 5 6 7 9 11 12 11 12 12 11 12 14 15 12 10 14 18 17 17 19 20 21 22 24 24 25 26 24 21 20 20 20 21 21 24 24 19 17 16 15 15 16 16 15 16 16 13 11 10 8 8 8 6 5 5 6
13 13 13 12 10 7 5 6 8 9 10 10 10 12 11 8 9 12 12 12 10 13 18 16 15 17 21 21 21 22 25 26 26 26 23 21 20 18 17 21 24 23 19 18 16 15 16 15 14 15 16 17 17 15 13 10 11 11 9 7 5 6
16 15 14 13 12 11 9 7 8 9 10 9 9 11 11 9 11 13 13 14 12 12 15 16 15 17 20 21 20 21 23 23 24 25 24 21 20 16 14 17 20 20 18 18 16 14 16 16 15 14 15 17 17 17 15 11 10 11 9 8 7 6
16 15 13 13 11 10 10 10 10 10 11 10 10 12 13 13 14 13 13 13 11 11 12 13 17 18 19 22 23 22 22 20 20 23 23 22 19 15 13 14 15 18 18 17 15 14 15 16 16 15 15 16 17 17 16 12 10 10 9 8 7 6
17 16 15 13 11 9 8 9 9 10 10 10 10 13 15 15 13 11 11 12 12 12 12 14 17 19 20 23 25 24 23 23 22 21 22 25 22 18 17 17 16 18 18 17 17 17 16 16 16 16 15 15 17 17 17 16 13 11 10 9 8 8
21 19 17 16 14 12 10 9 8 9 9 10 11 13 14 15 14 12 12 13 15 15 14 14 16 19 21 22 23 24 24 24 24 23 24 26 24 22 21 21 19 18 17 18 20 19 17 17 18 18 17 15 16 17 19 19 16 12 11 10 10 11
22 20 19 18 18 17 15 13 11 10 10 10 12 13 13 14 14 13 12 13 14 13 12 14 16 18 20 21 22 23 23 24 24 25 26 25 24 23 23 21 19 17 17 19 20 20 18 17 19 20 18 16 15 17 20 21 17 14 13 11 10 11
21 20 19 20 20 20 19 17 15 12 10 11 13 14 14 13 12 12 11 12 13 13 12 14 15 15 17 19 20 20 20 22 24 25 24 23 23 22 22 21 19 19 21 20 16 17 18 17 19 21 18 16 15 16 19 20 18 16 14 12 11 12
Wind_Direction
165 164 161 158 158 158 160 161 159 161 159 155 156 158 156 154 157 159 155 151 151 151 154 156 153 149 148 155 162 153 140 149 159 160 161 159 153 145 137 134 134 137 137 132 128 121 111 104 102 105 110 111 111 112 111 112 109 103 103 99 98 104
167 167 163 160 160 159 161 163 161 161 161 159 158 157 156 159 161 161 158 154 155 158 160 161 159 156 151 155 164 155 141 146 154 157 159 157 153 144 139 138 138 140 138 133 129 125 118 111 109 108 111 114 116 118 116 115 112 106 105 99 102 114
168 168 165 163 162 162 163 166 164 163 164 163 161 162 162 164 166 166 165 162 162 166 165 164 164 159 152 155 166 160 145 146 152 156 156 155 152 145 142 142 141 142 139 136 134 130 126 122 118 115 116 118 120 120 119 117 114 108 106 103 106 116
172 170 169 168 166 165 166 168 167 166 167 168 167 169 170 169 171 173 171 168 168 169 168 167 165 162 157 157 166 164 148 146 151 155 154 152 151 147 144 143 142 142 142 142 140 133 130 126 123 122 122 123 122 120 121 120 117 111 106 105 109 112
177 175 174 173 171 169 169 170 171 171 171 171 172 172 174 175 176 179 177 172 172 172 170 170 170 169 165 162 165 163 153 150 152 158 157 152 153 152 148 144 143 144 147 148 145 138 133 127 123 124 124 124 123 121 122 123 120 116 109 108 117 124
180 182 181 178 176 173 172 173 175 174 173 173 174 174 177 180 181 184 182 178 175 174 172 174 178 177 172 168 166 164 163 161 161 167 165 159 158 156 152 147 147 149 153 153 148 143 136 130 126 126 125 123 123 123 123 123 121 118 112 110 124 131
184 186 187 185 180 177 177 178 178 177 176 176 176 177 181 184 184 186 187 183 179 176 175 177 181 182 179 174 170 170 170 167 165 168 168 165 161 159 157 151 150 153 154 155 152 147 140 133 131 128 125 124 125 124 123 124 123 118 113 112 121 124
189 190 191 192 186 184 184 182 181 181 182 181 178 180 183 186 187 187 187 185 183 180 178 180 183 186 187 182 177 176 176 174 166 163 166 166 164 162 162 155 150 151 152 155 152 149 145 139 138 132 128 127 128 126 123 125 126 121 115 116 121 127
192 193 193 194 192 190 189 186 185 186 188 185 182 183 184 186 188 186 185 186 187 185 181 182 186 188 192 190 185 182 181 179 171 165 163 166 168 166 164 160 152 149 150 153 153 152 150 146 145 139 133 131 128 126 124 126 129 127 123 121 123 131
197 197 195 194 196 195 192 190 189 190 191 189 187 186 186 189 188 185 187 189 189 189 186 185 188 190 193 195 189 185 186 184 178 172 165 165 170 168 166 164 156 151 149 151 154 154 153 152 152 147 141 136 132 131 130 132 134 134 131 127 124 126
200 198 197 195 198 199 196 192 191 193 192 192 192 190 190 192 190 189 190 190 190 192 191 189 191 193 193 193 189 188 189 188 185 179 172 169 170 169 168 168 162 157 153 154 156 156 158 159 158 157 153 148 142 140 139 144 147 142 136 132 128 126
204 202 200 198 200 202 198 194 194 195 192 193 196 195 194 194 193 194 193 192 192 194 195 192 194 196 195 191 189 191 192 191 192 188 181 176 172 169 168 169 167 162 158 157 157 159 164 164 165 165 165 162 156 151 150 155 157 151 145 139 134 130
208 208 206 201 201 202 201 199 199 197 194 195 197 196 197 196 195 197 196 196 196 197 197 194 198 200 196 193 190 192 193 194 196 197 193 187 181 174 168 168 168 168 168 165 163 165 169 170 173 174 176 174 167 164 162 165 166 159 154 146 138 136
211 211 209 204 202 202 204 203 202 202 199 200 201 202 202 200 199 200 199 200 200 199 198 196 201 203 197 194 190 193 198 200 202 204 202 197 192 185 176 170 171 173 175 174 172 172 175 178 179 180 183 182 175 173 169 170 173 166 160 154 146 139
215 213 209 208 206 204 207 207 207 207 204 205 208 210 210 206 206 205 202 203 204 202 200 198 201 204 201 196 190 196 202 203 205 207 206 206 202 195 188 180 177 180 179 177 175 176 179 180 179 178 183 184 180 178 173 175 179 173 169 162 153 151
220 215 211 212 211 208 208 208 208 205 204 209 212 216 217 215 215 210 206 206 206 205 203 202 203 205 204 202 198 199 202 201 204 207 207 210 209 203 195 187 183 186 185 179 173 177 180 178 177 176 179 184 185 185 180 180 180 177 175 168 164 166
223 219 215 212 211 211 208 206 206 203 205 210 214 217 219 222 225 218 211 209 209 209 208 205 205 206 205 205 205 205 204 201 202 205 207 209 211 209 201 192 186 185 192 190 176 174 177 177 178 177 180 183 185 187 188 187 185 182 178 175 174 173
226 224 221 214 212 214 212 212 208 206 208 210 214 219 220 226 233 230 220 215 215 215 212 208 208 209 206 206 208 208 206 203 201 201 204 206 208 207 203 199 191 181 191 194 181 175 177 176 177 177 180 184 188 189 191 191 189 187 182 182 183 181
229 227 223 214 213 215 212 211 205 207 215 217 220 225 226 227 230 234 230 222 219 218 214 209 209 210 206 205 207 206 205 204 203 202 205 207 205 204 202 200 194 183 183 186 179 175 173 170 169 172 174 178 188 193 195 196 198 193 186 188 191 197
245 234 221 208 212 215 211 209 204 207 217 222 226 231 235 234 233 237 236 229 223 221 217 212 211 211 207 206 207 206 206 205 205 207 213 215 210 205 200 195 191 181 172 167 167 171 167 163 155 150 167 178 192 201 205 206 205 198 191 194 201 207
341 336 314 232 217 216 213 211 210 213 219 224 230 235 238 240 239 241 240 234 228 225 221 217 216 214 209 207 209 207 207 208 210 213 220 223 217 207 199 193 186 178 171 165 165 170 166 159 150 144 157 169 188 203 209 211 208 203 201 204 210 216
2 355 307 252 227 227 229 221 217 223 229 230 232 235 238 242 243 246 246 239 233 230 226 223 221 218 213 209 209 209 209 211 214 217 222 226 220 208 198 192 183 176 177 175 172 174 171 166 167 166 161 157 165 184 199 208 205 204 204 205 211 222
290 275 251 234 218 219 226 223 217 223 232 234 236 239 241 244 249 251 249 246 239 232 227 226 223 221 218 213 210 209 211 213 216 219 221 223 220 208 198 194 188 180 176 177 176 177 181 183 181 169 162 170 167 162 186 194 195 206 208 206 213 222
257 249 239 235 226 218 220 218 214 217 227 235 242 247 248 247 251 254 252 250 246 236 229 225 220 218 217 214 211 212 216 217 220 223 221 217 213 205 200 197 192 187 179 175 175 179 189 190 181 168 161 177 169 170 203 192 190 205 208 207 211 218
264 251 229 236 240 225 223 225 224 220 222 231 240 248 251 249 249 253 255 253 250 243 235 229 223 219 217 213 212 214 220 223 224 225 222 218 212 202 203 201 195 194 190 184 179 179 188 190 187 180 167 159 162 198 226 189 182 190 197 204 204 210
272 257 229 226 238 227 224 229 235 233 226 225 232 238 243 249 249 250 255 258 259 254 243 237 233 225 222 218 216 215 220 226 229 227 222 219 215 209 210 207 198 197 197 193 183 175 184 190 194 192 182 174 175 227 207 181 184 181 186 202 205 208
279 261 234 224 237 232 225 229 238 244 241 231 233 239 241 249 254 256 258 259 262 260 254 254 253 243 235 228 226 222 221 227 232 232 228 220 216 217 220 214 201 200 200 197 190 181 184 187 192 199 196 192 192 198 180 181 200 193 180 195 200 205
321 301 285 264 229 203 215 233 247 253 254 244 243 248 246 245 248 252 255 254 255 259 259 263 261 252 242 232 230 229 224 227 233 234 230 225 221 220 222 218 209 208 203 197 197 191 187 187 190 198 201 201 200 184 179 190 210 199 190 186 183 192
355 353 346 327 288 242 227 238 260 260 260 254 252 253 243 238 239 244 253 251 246 250 251 253 253 244 237 233 233 233 231 229 231 230 227 227 225 222 221 218 212 211 205 200 202 198 192 191 194 196 194 195 191 178 184 199 204 196 199 184 178 185
357 4 6 357 336 293 255 251 260 260 262 263 264 260 246 241 244 248 261 261 251 259 256 250 252 251 247 243 239 238 238 236 232 229 229 229 225 223 223 214 209 210 207 204 205 203 200 193 194 198 193 190 189 186 189 196 200 197 197 189 191 193
8 6 4 360 354 343 307 272 263 258 259 261 261 258 251 248 245 244 258 260 259 275 269 253 251 256 254 249 242 239 239 238 235 230 231 230 223 220 216 207 209 212 207 207 208 207 206 199 194 197 197 196 195 195 195 194 194 192 190 192 192 187
25 19 13 2 352 346 335 314 291 272 262 257 250 245 242 242 241 242 245 241 242 261 263 256 251 250 251 247 242 241 239 235 233 230 230 230 225 220 209 205 215 218 210 212 213 207 207 206 203 201 201 203 202 203 205 202 193 190 195 198 192 185
24 20 15 5 356 347 335 326 316 297 277 265 254 247 249 248 242 239 237 232 235 242 242 247 248 247 247 243 238 239 240 235 231 231 231 230 228 222 210 203 210 216 217 216 212 210 212 209 206 204 203 206 208 209 210 209 203 200 204 199 193 190
14 9 6 1 354 346 333 320 309 297 283 269 259 258 262 260 247 237 241 244 247 244 234 233 240 246 248 242 236 233 235 235 233 235 238 236 230 225 221 215 212 217 221 218 213 216 220 217 212 209 206 205 208 212 213 214 212 210 206 197 192 186
10 4 1 356 348 340 330 313 299 291 283 266 255 257 261 260 251 243 246 248 249 248 243 237 240 245 244 240 235 232 231 232 233 237 243 242 234 228 229 228 222 218 215 216 218 217 216 217 219 216 210 208 209 211 214 216 214 212 208 202 195 184
8 4 359 353 349 344 337 326 316 304 293 282 269 263 261 260 252 244 241 241 245 248 248 253 254 247 242 238 235 233 231 230 232 236 239 241 236 227 227 227 219 214 214 216 220 221 219 217 221 221 214 209 210 211 216 217 215 214 213 209 200 187
4 3 358 352 349 347 346 340 334 323 303 288 277 269 268 267 260 252 244 241 249 255 255 261 262 249 241 237 231 229 231 231 233 233 233 238 236 227 223 223 218 217 221 219 214 220 226 221 220 221 215 212 212 211 217 219 216 216 216 212 203 194